Wind_Speed
25 25 24 22 22 20 18 16 16 16 17 17 17 18 17 15 15 13 11 10 11 12 13 14 15 16 17 19 19 20 20 20 19 18 17 16 14 13 13 14 15 15 16 16 16 15 13 11 9 8 8 8 8 7 7 7 8 9 9 8 8 8 8 7 7 8 8 8 8 8 8 8 8 7 7 7 6 6 5 5 5 5 5 5 5
25 25 24 22 21 20 18 16 16 15 16 17 17 17 16 15 14 13 10 10 11 12 13 14 16 17 18 19 19 20 20 20 19 18 17 16 13 12 12 13 14 15 15 16 16 15 14 13 10 9 8 8 8 7 7 7 8 9 9 8 8 9 8 7 7 8 8 8 8 8 8 8 8 7 7 6 6 6 6 6 6 6 6 6 6
25 26 24 21 20 19 18 16 15 15 15 16 16 16 16 14 13 12 11 10 11 12 13 14 16 17 18 19 20 20 20 19 18 17 16 15 13 11 11 12 13 14 15 16 16 16 15 14 12 11 9 8 8 7 7 7 8 9 9 9 9 9 9 8 7 8 8 8 7 7 7 7 7 7 7 6 6 6 7 7 7 7 7 7 7
24 25 24 21 20 19 18 16 15 14 14 15 15 16 15 14 13 12 12 11 10 11 13 14 16 17 18 19 20 20 20 19 17 16 16 15 12 10 10 11 11 13 15 15 16 16 15 14 14 12 10 9 8 8 7 8 9 9 10 10 10 10 9 8 7 7 7 7 7 7 7 7 7 7 7 7 7 7 7 7 7 7 7 7 7
24 24 24 22 21 19 18 16 15 14 13 14 14 15 15 14 13 12 12 11 11 11 13 14 16 17 18 19 20 20 19 18 16 16 15 14 12 10 9 10 10 11 13 15 16 15 15 15 14 13 12 10 9 8 8 9 10 10 11 11 11 11 10 9 7 6 6 6 6 6 6 6 7 7 7 7 7 8 8 8 8 8 8 8 8
24 24 24 23 22 20 18 16 15 13 13 13 14 15 15 14 13 12 12 11 11 12 13 14 16 17 18 19 19 19 18 17 16 15 14 13 12 9 8 8 8 10 12 14 15 15 14 14 14 14 13 11 10 10 9 10 10 11 11 11 11 11 11 10 9 7 6 5 5 6 6 6 7 7 7 7 8 8 9 9 9 9 9 10 10
23 24 24 23 23 21 18 16 14 13 12 13 13 14 14 14 13 12 12 11 11 12 13 14 15 16 17 18 19 19 18 17 15 14 13 12 11 9 7 7 7 8 10 12 14 14 13 13 13 13 13 12 11 11 10 10 11 11 11 11 11 11 11 10 10 8 7 7 7 6 6 7 7 7 7 8 8 9 9 9 10 10 10 10 11
23 23 24 24 23 21 18 16 14 12 12 12 13 14 14 13 13 12 11 11 11 12 13 14 15 16 17 17 18 18 17 16 14 13 13 11 10 9 7 6 7 8 10 11 13 13 13 12 12 13 13 13 12 12 11 11 11 11 11 11 11 10 10 10 10 9 9 8 8 7 7 7 7 7 8 8 9 9 9 10 10 10 11 11 11
23 24 25 24 22 20 18 16 14 12 11 12 13 13 13 13 13 12 11 10 11 11 12 13 14 15 16 16 17 17 17 15 14 12 12 11 10 10 8 6 7 7 9 11 12 12 12 12 11 12 12 12 12 12 12 11 11 11 11 11 11 10 10 9 9 9 9 8 8 8 8 8 8 8 8 9 9 10 10 10 11 11 11 12 12
22 24 25 24 22 21 19 17 15 13 12 12 12 13 13 13 12 12 11 10 10 11 12 13 13 14 15 15 15 16 16 14 13 12 12 12 11 10 8 7 7 8 9 10 11 12 12 12 11 10 11 11 11 11 11 11 11 11 11 11 11 11 10 10 9 9 8 8 8 8 8 8 8 9 9 9 10 10 10 11 11 11 12 12 12
22 24 25 25 23 21 19 18 15 13 13 12 13 13 13 13 12 11 10 10 10 10 11 12 13 13 14 14 14 14 14 13 12 12 13 13 12 11 9 8 8 8 9 9 10 11 12 12 11 10 9 9 10 10 11 11 11 11 11 11 11 11 10 10 9 9 8 8 9 9 9 9 9 9 9 9 10 10 10 11 11 11 12 12 11
23 25 25 25 24 21 20 18 16 14 13 13 13 13 13 13 12 11 10 10 9 9 10 11 12 13 13 13 13 13 13 12 12 13 13 13 12 12 10 8 8 8 9 9 9 10 11 12 12 11 10 9 9 9 10 10 10 10 10 10 11 11 11 10 10 9 9 9 10 10 10 10 9 10 10 9 9 9 10 10 11 11 11 11 11
23 24 25 26 24 21 20 18 16 14 14 14 13 13 12 12 12 11 10 10 9 9 9 11 12 12 12 12 12 12 12 11 12 13 13 13 12 12 10 8 7 8 9 9 9 9 10 11 11 11 11 10 9 9 9 9 10 10 10 10 10 10 10 10 10 10 9 9 10 10 10 10 10 11 10 9 8 8 9 9 10 11 11 11 11
23 25 26 26 23 21 20 18 16 15 14 14 14 13 12 12 12 12 11 10 9 9 9 11 12 12 12 12 12 12 12 11 12 13 13 13 12 11 10 8 7 7 8 8 9 9 10 11 11 11 11 10 10 10 9 9 10 10 10 10 10 10 10 10 10 10 9 9 9 9 10 10 10 10 10 10 8 8 8 9 9 10 11 12 11
25 26 27 25 22 20 19 18 16 15 15 14 14 13 12 12 12 12 12 11 10 9 9 11 11 12 12 12 12 12 12 12 13 13 13 12 11 11 10 8 6 7 8 8 8 8 9 10 11 11 11 11 10 10 10 10 10 10 10 9 9 9 10 10 10 10 9 10 10 9 9 9 9 10 10 10 10 8 8 8 9 10 11 12 12
26 27 27 25 21 20 18 17 16 15 15 14 14 13 12 12 13 13 12 11 10 9 9 10 11 12 13 13 13 13 13 12 13 13 13 12 11 10 10 8 6 6 7 8 8 8 9 10 10 10 10 10 10 10 10 10 10 10 10 10 10 10 10 10 10 10 10 10 9 9 9 9 9 10 10 10 10 10 9 9 9 10 11 12 12
27 27 27 24 21 20 18 16 15 15 15 15 14 13 13 13 14 14 13 11 10 9 9 10 12 13 13 13 13 13 13 13 13 13 13 11 10 10 9 9 7 7 8 9 9 8 9 10 10 10 10 10 10 10 10 9 10 10 10 11 11 11 11 10 10 9 10 9 9 9 9 10 10 10 10 10 11 10 10 10 10 10 10 11 11
27 27 26 24 21 20 18 16 15 15 15 15 14 14 14 14 15 14 13 12 10 9 9 11 12 12 13 13 13 13 13 13 13 13 12 11 10 9 9 9 8 8 8 9 9 9 9 10 10 10 10 10 11 10 10 9 10 10 10 11 11 12 11 11 10 9 10 10 9 9 9 10 9 10 10 10 11 11 11 11 10 10 11 11 11
27 27 25 23 21 20 18 16 16 15 15 15 14 14 15 15 15 15 13 12 10 10 10 11 12 13 12 12 13 13 14 14 13 13 12 12 10 9 9 9 9 8 8 9 8 8 9 9 9 10 10 11 11 11 11 10 10 10 10 10 11 11 11 11 11 10 10 10 10 10 9 9 9 9 10 10 10 10 11 11 11 10 11 11 11
27 26 25 23 21 19 17 16 16 15 15 15 15 15 15 16 16 15 14 12 11 11 11 12 12 12 12 12 13 14 14 13 13 13 12 12 10 9 9 9 9 8 8 8 8 8 8 9 9 10 10 11 11 11 11 10 10 10 10 10 11 11 11 11 12 12 11 11 11 11 10 10 10 9 9 9 9 9 10 10 10 10 10 10 11
25 25 24 22 21 19 17 16 16 16 16 15 16 16 16 16 16 16 14 12 12 12 12 12 12 12 11 12 13 13 13 13 13 12 12 11 10 9 8 8 8 8 7 7 7 7 8 8 9 9 10 10 10 10 10 10 10 11 11 11 11 11 11 11 11 12 13 12 11 11 11 11 10 10 10 9 9 9 10 9 10 10 10 10 11
24 24 24 22 20 18 17 16 16 16 16 16 17 17 17 17 17 16 15 13 12 13 12 12 12 12 12 12 13 13 13 13 13 13 12 11 10 9 8 7 7 8 8 7 7 7 8 9 9 9 9 9 9 9 10 10 11 11 12 12 12 12 11 11 11 11 12 13 12 12 12 12 11 11 11 10 10 9 10 10 10 10 10 10 10
24 24 23 21 19 17 17 16 17 17 17 17 18 18 17 17 17 16 15 14 14 13 13 13 13 12 11 11 12 13 13 13 13 13 12 11 10 10 9 8 7 7 7 8 8 8 9 9 9 8 8 8 8 9 9 10 10 11 12 12 12 12 12 11 10 10 12 13 13 13 13 13 13 12 11 11 10 10 10 10 10 10 10 10 10
24 24 23 21 18 17 17 17 17 18 18 18 18 18 18 17 17 16 15 15 15 14 14 14 13 12 11 10 11 13 14 14 13 13 12 11 10 10 10 9 8 8 7 8 9 9 9 9 8 8 8 8 8 9 9 9 9 10 11 12 12 12 12 11 10 10 11 12 12 12 13 14 13 13 12 11 11 10 10 10 10 10 10 10 10
24 23 23 21 19 19 18 18 18 18 19 19 19 18 17 17 17 17 16 16 16 15 15 14 13 12 10 10 11 13 14 14 14 13 12 11 10 10 10 10 10 9 8 7 7 8 8 8 8 7 7 8 9 9 10 10 10 11 11 12 12 13 13 12 11 10 10 12 12 12 12 13 12 12 12 12 12 12 11 10 10 10 10 11 10
24 23 24 22 21 21 20 19 19 19 19 20 18 18 18 17 18 18 17 17 17 16 15 14 13 12 11 11 11 12 13 14 14 13 12 10 9 9 10 10 10 10 9 8 7 7 7 7 7 7 7 8 9 9 10 12 12 13 13 13 13 13 13 13 12 11 11 12 13 13 13 13 12 12 12 13 14 13 12 11 11 11 11 11 11
26 26 25 24 23 23 22 20 20 20 19 19 18 17 18 18 19 19 19 18 17 16 15 14 14 13 12 11 11 11 12 13 13 13 11 10 10 10 10 10 10 10 9 9 8 7 7 7 6 6 7 8 9 9 10 11 13 14 15 15 15 15 15 16 15 13 13 13 13 14 14 14 13 13 13 14 15 14 13 12 12 12 11 11 12
25 24 24 25 25 22 20 19 19 19 19 18 17 17 18 19 20 19 19 18 17 16 15 15 15 14 12 11 10 11 12 12 12 12 11 11 11 10 10 10 9 9 9 9 9 9 9 9 8 8 8 8 9 10 11 11 12 13 14 15 16 16 17 17 17 16 13 12 13 14 14 14 13 12 13 15 16 16 14 13 12 13 12 12 12
21 20 21 24 23 19 17 16 16 18 18 17 17 18 19 20 20 20 19 17 16 16 15 16 16 14 12 11 11 11 11 11 11 10 10 10 11 10 10 10 9 8 9 10 10 11 11 11 11 11 11 11 12 12 12 12 13 14 14 14 14 15 16 16 17 18 15 12 12 15 15 15 15 13 13 14 15 16 16 15 14 14 14 14 14
21 19 19 21 21 19 17 16 16 17 17 17 18 19 20 20 20 19 17 16 17 17 17 17 16 15 13 12 12 12 12 11 10 9 9 8 9 9 8 8 8 9 10 11 12 12 12 12 12 12 13 13 13 13 13 13 13 14 15 17 16 16 16 16 17 18 18 15 15 16 16 16 16 16 16 16 15 15 16 17 17 16 16 16 16
21 20 20 20 19 18 17 16 17 17 17 19 19 20 20 19 18 17 17 17 18 18 18 18 16 15 14 12 13 14 13 11 10 9 8 7 7 7 7 7 8 9 11 11 12 13 13 13 13 12 13 13 13 13 14 14 14 14 14 16 18 18 18 17 17 19 20 19 17 17 17 17 17 17 18 18 17 16 16 17 18 18 18 17 17
22 22 22 18 17 18 18 17 18 18 19 21 20 20 19 18 17 17 18 19 18 18 18 18 17 15 14 14 14 15 13 11 10 9 7 6 6 6 6 7 8 10 10 11 11 11 12 12 12 12 12 13 14 14 15 15 16 16 15 15 16 18 19 18 18 20 21 20 18 17 18 18 18 19 18 18 18 17 17 18 17 17 18 18 18
26 25 24 20 16 17 19 19 20 20 21 21 20 19 18 18 19 19 20 20 19 19 19 19 17 16 15 15 14 15 14 13 11 9 8 6 5 6 7 7 8 9 9 9 10 10 11 11 11 12 12 13 14 14 15 15 16 16 16 16 15 16 18 18 19 19 20 20 19 18 17 18 19 19 19 18 18 18 18 18 17 17 17 17 18
30 27 25 22 18 19 21 22 21 21 21 20 19 20 20 20 21 22 22 21 21 21 21 20 18 18 17 15 15 15 14 14 13 10 9 6 5 6 7 8 8 8 8 9 9 10 11 11 12 12 13 13 14 14 15 15 15 16 16 16 16 16 17 18 19 20 20 21 21 19 18 17 17 18 19 18 17 18 18 18 17 18 17 16 17
31 29 26 24 23 23 24 23 22 21 22 21 20 21 22 21 22 23 22 22 23 23 22 21 20 19 17 15 15 15 15 17 16 13 10 7 6 6 7 8 8 8 9 9 10 10 11 11 11 12 12 13 13 14 14 15 15 15 16 17 17 18 18 18 18 19 20 21 21 20 19 18 17 17 18 18 18 18 18 17 17 17 18 18 17
32 29 26 25 26 26 24 22 22 22 22 21 22 23 23 22 23 23 22 23 24 24 25 24 21 19 17 15 15 16 16 18 17 14 10 9 8 8 9 9 9 9 10 10 10 11 11 11 11 11 12 12 13 13 14 14 15 15 16 16 17 18 19 19 19 19 19 20 21 21 20 19 18 17 17 18 18 19 19 18 17 17 18 19 18
31 28 25 25 26 25 24 23 23 23 23 22 23 24 24 24 24 24 23 24 24 23 24 23 21 19 17 16 17 17 18 17 15 11 9 10 11 10 9 9 9 11 12 12 12 12 12 11 11 12 12 12 12 13 14 15 16 16 17 17 17 18 19 19 20 20 19 20 20 21 20 20 20 18 18 18 18 18 18 18 17 17 18 19 19
28 26 26 24 25 26 25 25 25 24 23 23 25 26 26 25 25 25 25 26 25 23 22 20 19 18 17 17 18 17 16 14 12 10 9 11 11 9 8 8 10 12 13 13 13 13 12 12 12 13 13 13 14 14 15 16 17 18 18 18 18 19 20 21 21 21 21 21 21 21 21 21 21 20 19 19 19 18 18 18 17 18 18 18 20
27 26 26 25 26 27 27 27 26 26 24 23 25 27 27 26 25 24 24 25 24 23 22 19 18 17 17 17 17 15 13 11 10 9 10 10 9 8 8 9 11 13 14 15 14 14 14 14 14 15 15 16 16 17 18 18 18 19 20 20 20 20 21 22 22 23 23 23 23 23 22 22 22 22 22 21 21 21 20 19 18 18 19 18 19
27 26 27 27 27 28 28 28 27 27 26 24 25 27 26 26 26 25 24 24 23 22 20 18 17 17 15 13 13 13 11 11 9 7 9 9 7 8 8 10 13 14 15 16 15 15 15 15 16 17 17 18 19 19 19 20 21 22 23 23 23 23 23 24 25 25 25 25 25 24 24 23 23 23 23 23 22 22 21 21 20 19 19 19 19
27 26 28 28 27 27 27 26 27 27 26 25 26 26 26 26 27 26 24 24 22 21 20 18 17 16 13 11 10 10 8 7 6 6 8 8 8 9 11 13 14 15 16 16 16 16 17 18 18 19 20 20 20 21 21 22 22 23 24 25 25 25 25 26 27 28 28 28 27 26 25 24 23 23 23 22 22 22 22 22 21 20 20 20 19
26 26 26 27 28 27 28 28 27 27 25 25 27 27 27 26 27 26 25 23 21 19 19 18 18 18 16 12 8 6 5 5 5 6 7 9 10 12 13 14 15 16 17 17 18 18 18 19 20 20 21 22 22 23 23 23 24 24 25 26 27 27 27 27 28 29 29 29 29 28 27 26 25 25 24 23 23 23 23 22 22 21 20 20 19
24 23 24 27 27 27 28 29 27 25 25 25 27 27 25 25 25 24 22 22 20 18 17 16 15 15 12 8 6 6 5 5 6 7 8 10 11 12 14 15 16 17 18 19 19 20 20 20 21 22 22 23 24 24 25 25 25 26 26 27 27 28 29 29 30 30 30 30 30 30 29 28 27 27 26 25 24 24 24 23 23 22 21 20 20
23 22 24 25 25 24 25 24 23 23 23 24 25 24 23 23 22 21 20 20 19 16 15 14 13 10 6 3 5 5 6 6 7 8 9 11 12 13 14 15 16 18 19 20 21 21 22 22 23 24 25 25 26 26 27 27 27 28 28 28 28 29 30 30 31 31 31 31 31 31 31 30 29 28 28 27 26 25 25 24 24 23 22 21 21
23 22 23 24 23 23 21 19 21 23 22 23 24 22 20 20 19 19 19 18 16 14 13 12 9 4 3 4 5 5 6 7 7 9 10 11 12 14 15 15 17 19 20 21 22 23 24 24 24 25 26 27 28 28 28 29 29 30 30 30 30 30 30 30 31 31 32 33 33 32 31 31 30 30 29 29 29 28 26 25 25 25 24 23 22
22 20 21 22 22 22 20 19 21 23 23 22 20 18 16 15 15 16 15 13 13 12 11 8 5 4 5 4 4 5 6 7 8 9 11 12 13 15 16 17 18 20 22 23 24 24 25 25 26 26 26 27 28 30 30 30 31 31 32 32 32 32 31 31 30 30 31 33 34 33 32 32 32 31 31 30 30 30 29 28 27 26 26 25 24
19 19 18 18 19 20 19 18 18 19 20 19 17 14 12 10 10 12 12 11 10 9 8 7 6 5 5 4 4 5 6 7 9 10 11 13 14 16 17 18 20 21 23 23 24 25 25 26 26 27 27 28 29 30 31 32 32 32 33 33 33 33 33 32 31 30 30 30 33 35 34 34 33 33 33 32 32 31 31 31 30 28 28 27 26
19 18 17 17 17 19 21 21 17 16 16 17 16 14 11 10 9 9 10 9 9 8 10 10 8 6 6 5 5 6 7 8 9 11 12 14 15 17 18 20 21 22 23 24 24 25 25 26 27 27 28 29 29 30 31 32 32 33 34 34 35 35 35 35 34 33 32 30 31 33 35 36 36 35 34 34 33 33 32 32 32 31 30 29 27
19 18 18 18 17 16 19 22 18 15 16 16 15 12 10 10 8 7 8 10 12 12 12 9 8 8 7 6 7 8 8 9 11 13 14 15 16 17 19 20 21 22 23 24 24 25 26 27 28 29 29 30 30 30 31 31 32 33 33 34 35 36 36 37 37 37 37 35 33 33 34 35 36 36 36 36 35 34 34 34 34 33 32 31 29
18 19 20 18 15 11 10 14 15 14 14 14 14 11 8 9 10 11 11 12 13 12 10 9 9 9 8 8 9 9 10 11 13 15 16 17 18 19 20 21 22 23 24 25 25 26 28 29 30 30 31 31 32 32 33 33 34 34 35 35 36 36 37 37 38 39 40 40 38 36 35 35 35 35 36 37 37 36 36 36 36 36 34 33 32
17 19 20 18 15 10 5 7 11 12 12 13 12 11 10 12 14 14 14 12 11 9 8 9 10 9 9 9 10 11 12 13 15 17 18 19 20 21 22 23 24 25 26 27 27 28 29 30 31 32 33 33 34 34 35 36 36 37 37 38 38 38 38 38 39 40 41 41 41 40 38 37 36 35 35 36 36 37 37 38 37 37 36 35 35
Wind_Direction
337 336 335 332 328 328 330 332 333 334 336 338 339 336 332 329 329 325 317 313 315 322 330 335 339 344 349 354 356 358 0 1 3 4 6 6 5 6 10 11 12 11 12 14 13 10 9 12 21 42 49 48 45 37 33 36 38 37 35 34 36 38 40 47 56 63 66 66 63 60 57 56 53 49 46 42 39 34 31 28 24 17 10 2 356
331 333 333 329 324 324 326 328 328 330 333 336 336 333 329 326 325 319 312 310 314 323 331 335 338 343 348 353 355 357 360 1 3 4 5 6 6 5 8 12 14 14 14 16 15 13 12 13 17 33 43 45 43 35 28 28 32 34 34 33 36 39 43 51 58 63 63 63 60 56 49 43 39 36 34 32 30 25 23 20 17 11 6 0 353
326 331 331 325 320 320 322 323 324 326 330 333 333 330 327 323 321 314 307 307 315 325 330 334 338 342 347 351 354 356 359 1 3 4 5 6 7 5 8 13 16 18 17 19 17 15 16 16 18 24 32 38 39 32 23 21 26 30 31 30 33 36 40 46 51 55 55 53 50 47 42 35 28 23 22 20 19 16 13 9 6 3 360 356 350
322 328 328 321 316 316 317 318 319 323 328 330 328 327 325 320 317 309 303 307 316 325 330 334 337 341 346 350 353 355 357 1 4 5 6 6 8 7 9 14 18 21 20 20 19 17 17 18 20 22 24 29 31 25 18 15 18 24 26 26 27 29 33 38 43 45 45 42 36 33 29 28 21 13 11 9 9 5 3 359 355 353 351 348 344
319 325 323 316 312 311 311 313 316 320 323 324 324 325 323 319 313 305 302 308 318 325 329 333 336 341 345 349 352 354 355 359 4 5 6 6 9 9 10 14 18 20 19 19 18 17 17 19 22 23 23 25 24 20 15 11 12 17 21 22 22 23 24 27 31 32 33 30 26 21 10 15 15 4 2 359 359 357 354 350 345 344 342 341 340
313 320 318 311 308 306 306 309 312 315 318 320 321 323 322 318 312 304 302 309 317 324 329 333 336 340 344 348 351 352 354 357 1 5 6 6 9 10 12 12 13 15 13 13 14 14 15 18 22 24 23 24 21 17 13 10 9 11 15 17 18 19 19 20 19 16 15 10 10 8 352 1 4 353 353 351 350 350 348 345 341 338 336 336 335
307 314 311 307 305 301 302 305 308 310 313 316 319 322 321 318 313 304 303 309 316 323 328 332 335 339 344 347 349 351 352 354 358 3 5 5 7 10 12 11 10 8 5 6 8 11 13 17 20 22 23 23 20 17 14 10 8 7 10 12 13 16 17 17 14 9 4 355 353 350 345 352 349 341 343 342 342 343 343 341 338 335 332 329 328
303 307 304 302 300 297 299 302 305 306 310 313 316 320 321 320 313 304 302 307 314 321 327 331 334 338 343 346 348 349 351 352 355 0 4 5 4 7 10 10 9 4 1 2 5 10 13 15 17 20 22 22 21 18 16 12 9 7 7 8 9 12 14 15 13 10 5 356 345 339 341 340 331 330 332 333 334 334 335 335 333 331 328 324 323
298 299 297 297 296 296 298 299 300 302 307 309 313 317 320 320 311 302 300 305 312 319 326 330 334 338 342 345 346 348 350 351 353 358 1 3 2 2 5 7 8 4 1 3 8 14 16 17 16 17 20 20 20 19 17 15 11 9 8 7 7 7 10 11 11 11 6 359 350 345 338 325 319 321 322 324 324 326 329 329 329 328 327 326 324
292 293 293 293 295 296 296 295 296 299 302 305 309 314 318 317 309 300 298 303 310 318 325 330 335 339 341 342 344 346 350 352 355 357 359 1 359 358 0 4 7 4 3 7 14 20 23 22 19 18 20 20 20 20 18 16 15 13 10 8 6 6 8 8 8 9 6 1 358 352 341 330 325 320 316 316 317 320 322 323 324 326 329 330 328
287 289 291 293 294 294 293 291 292 296 298 303 306 310 315 314 306 297 295 299 307 316 323 331 336 339 339 338 340 344 349 353 355 357 358 358 358 357 357 2 6 5 6 11 19 24 27 27 26 25 24 23 22 21 19 17 16 15 14 12 10 9 10 9 6 7 4 2 3 357 352 350 344 333 323 315 312 314 315 318 321 325 328 330 328
283 287 289 291 291 290 290 288 290 294 295 299 303 307 311 310 304 293 290 294 301 312 320 331 336 336 334 331 333 339 345 349 352 354 354 356 356 356 355 0 6 8 10 14 19 24 27 28 29 31 30 27 23 21 18 16 15 15 15 15 15 14 14 13 9 8 4 4 6 2 360 0 357 352 342 327 314 309 310 313 317 320 324 326 326
283 286 287 287 286 286 287 287 290 292 293 296 299 302 304 305 299 288 285 287 293 304 315 327 332 331 327 324 326 331 336 339 344 348 351 353 354 355 354 357 5 10 12 12 15 20 23 23 24 28 30 29 26 22 18 15 14 13 14 14 15 16 16 17 13 11 8 9 8 4 4 4 2 358 351 342 325 308 305 308 311 314 320 325 324
285 284 283 282 282 284 285 287 289 291 291 293 295 297 298 298 291 281 278 279 286 296 307 320 325 323 318 317 319 322 325 327 333 339 344 348 350 352 351 352 0 7 8 7 7 13 16 17 18 20 24 26 25 22 20 18 16 14 13 13 12 12 13 15 15 10 10 13 9 6 6 4 1 358 355 350 338 319 305 304 309 313 320 324 324
282 281 281 279 279 282 284 286 287 288 290 291 292 292 291 289 282 274 272 274 281 291 304 315 317 313 310 311 313 316 317 320 325 330 335 339 343 346 347 346 347 354 359 358 356 2 7 10 11 13 17 19 20 19 19 19 19 18 17 15 11 10 8 11 15 4 5 13 7 5 3 359 358 358 357 353 349 336 318 309 310 314 319 323 325
278 278 278 276 277 281 282 282 283 286 288 288 287 285 283 279 273 269 268 272 278 290 303 309 308 305 306 308 310 313 316 320 322 325 329 333 336 339 343 339 333 337 345 348 346 352 359 4 5 7 10 11 14 14 16 18 19 19 18 19 16 15 12 14 16 358 359 10 1 359 357 355 356 357 357 354 352 344 330 318 313 313 317 321 324
276 277 276 274 275 279 279 278 280 284 285 284 280 276 273 270 267 265 266 270 277 290 299 302 302 302 303 305 309 313 317 321 322 323 326 329 331 333 337 335 327 323 331 339 339 345 353 359 360 0 2 3 6 7 11 15 17 18 17 18 18 20 19 19 20 358 354 3 355 353 354 353 354 353 353 352 351 347 340 329 318 314 315 319 321
275 275 272 270 272 274 274 274 277 281 281 278 273 268 266 264 264 264 265 268 275 286 292 297 298 300 301 304 309 314 319 323 325 325 325 326 328 329 332 333 330 323 323 331 334 342 349 353 355 355 356 356 358 359 2 8 13 17 18 18 18 21 21 19 19 3 353 357 352 349 348 348 348 347 349 349 349 348 345 339 330 321 317 319 320
274 271 267 266 269 271 270 270 273 275 274 271 265 262 262 262 263 262 262 265 272 279 285 291 295 297 299 304 309 314 320 325 327 327 325 325 326 330 332 333 334 330 326 330 336 342 347 350 352 352 352 353 353 353 355 2 9 15 16 16 17 19 20 18 14 2 355 358 354 347 342 339 339 340 341 342 345 346 345 343 338 331 322 318 319
270 265 263 264 266 267 267 267 269 269 267 263 259 257 258 260 261 260 260 263 268 274 280 287 292 294 297 304 309 315 321 325 327 326 325 324 326 332 335 334 333 334 333 335 338 342 347 348 349 350 351 352 352 352 357 4 10 12 12 13 15 16 18 21 15 360 355 3 359 351 346 339 333 331 332 335 338 339 339 340 339 334 326 319 318
262 258 259 261 262 264 264 262 262 260 259 255 254 255 257 259 258 257 257 259 265 270 277 284 288 290 295 303 309 315 321 323 323 322 322 323 326 331 335 335 331 332 335 337 340 342 345 346 347 350 352 354 357 360 5 9 12 11 10 9 11 13 13 19 22 3 352 2 3 356 353 346 339 332 330 329 330 332 332 334 334 333 329 323 318
254 255 257 258 259 260 259 255 254 252 251 250 251 254 256 256 255 254 255 259 263 268 275 280 283 286 292 302 310 313 317 319 318 319 319 320 322 326 330 330 329 331 333 335 338 341 342 345 349 353 356 360 4 8 11 12 11 9 7 5 3 6 7 10 21 9 350 356 1 359 357 353 349 342 337 332 328 327 327 329 329 329 329 326 320
249 251 254 256 257 256 253 248 247 246 246 247 250 253 254 254 254 254 256 258 261 265 272 277 280 283 291 303 309 310 314 317 318 317 315 317 319 322 325 324 327 330 330 331 334 339 343 346 350 353 358 360 4 8 10 11 9 6 3 1 358 358 1 2 12 8 351 353 357 358 357 355 353 350 347 341 334 329 326 326 325 324 324 324 323
246 250 253 254 253 250 247 243 242 243 244 246 249 251 252 253 253 255 255 257 260 264 269 274 278 281 289 299 304 309 315 319 321 317 315 319 322 324 325 323 324 326 328 331 333 338 342 344 346 349 352 352 355 358 1 5 4 1 358 356 353 352 354 357 5 5 353 350 353 354 354 353 352 351 350 346 340 333 327 324 322 320 320 319 321
246 250 252 251 248 246 241 238 239 241 243 245 247 250 250 252 253 254 254 256 260 263 268 273 277 280 284 290 300 312 318 322 322 319 319 323 324 324 324 323 324 323 326 330 332 335 338 340 339 340 343 344 346 349 351 351 351 351 351 351 348 347 349 350 357 3 354 349 349 350 350 350 349 347 347 347 344 338 330 323 321 319 318 316 316
246 248 249 247 243 241 236 233 237 239 242 244 246 249 250 251 253 252 253 255 259 263 269 273 276 275 277 286 300 312 317 321 323 322 324 324 324 325 323 324 325 325 327 331 331 331 334 335 333 332 335 338 341 343 342 341 341 341 343 345 345 343 343 344 347 355 353 347 346 347 346 347 345 342 342 343 343 341 335 326 322 320 317 315 312
239 240 243 244 239 238 235 229 232 237 240 244 246 248 250 251 252 252 253 255 259 264 269 273 273 271 274 285 297 308 314 318 322 323 323 322 324 323 320 324 326 325 327 330 333 334 335 336 333 332 335 337 339 341 340 337 338 340 340 341 342 340 340 339 340 347 350 345 343 343 343 343 342 339 339 339 337 338 336 327 321 319 316 313 310
236 234 236 239 238 235 234 228 229 236 240 244 247 248 250 251 252 253 254 256 260 265 269 273 272 270 274 282 291 301 308 317 323 322 321 323 325 323 321 323 324 325 327 329 335 339 340 340 338 338 341 341 340 341 342 341 339 341 341 339 340 340 338 337 337 339 342 341 339 339 338 339 338 335 334 335 333 333 332 327 321 318 317 315 310
240 236 232 234 237 234 235 236 233 238 242 245 248 249 251 252 254 255 257 262 265 268 271 271 270 271 273 277 283 291 300 312 319 320 321 324 324 321 321 322 323 328 329 328 331 334 334 335 335 336 340 341 341 340 341 342 339 340 340 339 340 339 337 338 338 334 332 334 335 335 333 332 332 330 328 329 329 329 329 327 323 319 317 317 313
247 244 238 236 239 235 235 241 241 243 245 248 249 250 252 254 257 260 264 267 267 268 269 268 269 270 270 272 275 281 292 305 312 318 322 323 319 316 317 316 318 320 318 319 321 321 320 322 324 327 332 335 337 337 337 338 337 340 339 338 339 339 339 342 338 331 331 336 338 335 331 327 326 324 323 322 320 322 327 328 326 324 319 316 315
255 253 249 244 242 238 236 242 245 247 248 249 249 250 253 256 261 266 267 265 264 267 268 268 269 268 267 267 271 279 287 297 304 311 317 317 315 315 316 313 312 312 311 314 316 315 316 317 319 321 326 330 332 333 334 334 334 338 340 338 338 337 339 342 336 330 334 341 342 337 331 327 322 321 321 320 320 319 324 326 325 326 322 316 312
251 252 254 253 247 240 240 246 248 248 249 249 250 252 256 261 265 266 263 261 263 265 265 265 265 265 265 265 272 280 282 286 291 298 305 310 313 317 317 318 320 318 316 317 316 316 317 321 324 324 327 329 331 330 331 332 333 336 339 340 339 335 337 340 337 333 336 339 340 337 332 328 324 323 321 322 323 321 318 318 318 323 322 316 310
238 241 246 250 251 247 246 249 251 251 252 253 256 259 262 264 264 262 261 261 261 261 260 261 262 263 264 266 272 274 274 277 280 283 290 298 310 318 324 332 334 327 321 319 319 321 321 325 327 326 327 327 326 326 327 330 332 334 336 338 339 336 336 338 337 336 336 336 336 336 333 330 327 324 322 324 325 321 317 314 314 318 319 315 310
235 236 237 239 244 252 252 251 253 255 257 259 261 263 263 264 265 266 265 266 266 262 260 260 261 261 263 266 266 266 270 274 273 271 274 282 301 316 325 331 330 327 325 327 329 328 326 326 325 323 323 322 321 323 326 328 330 331 332 335 337 338 338 338 337 336 336 335 334 335 334 332 329 325 323 326 325 321 320 318 316 317 315 312 310
241 239 237 234 236 247 253 254 260 263 262 263 263 263 263 264 267 270 271 274 272 265 261 261 260 258 258 261 261 262 269 272 269 263 262 269 287 298 301 306 314 324 330 334 335 330 326 324 320 319 318 318 320 323 326 325 326 330 332 335 336 337 338 338 337 336 336 335 333 333 334 331 328 325 324 325 323 320 321 323 320 317 314 311 309
251 246 242 242 243 251 257 261 268 267 263 263 262 262 263 264 265 268 270 272 269 263 262 262 259 256 255 255 257 260 268 270 266 260 261 268 272 274 276 286 307 319 322 325 328 325 323 323 320 320 320 319 321 322 323 323 324 327 329 332 334 335 335 335 335 335 335 334 332 332 332 330 327 327 325 323 322 322 325 326 324 321 317 313 310
256 249 247 250 254 262 267 267 270 268 263 261 260 261 262 264 265 266 265 263 263 262 263 261 257 255 253 252 254 259 264 264 262 260 265 268 265 267 276 288 306 312 313 316 318 319 318 320 321 321 322 321 319 318 319 320 321 322 324 326 329 330 330 329 329 331 332 331 330 329 329 328 327 326 324 321 321 324 326 326 325 322 319 316 312
256 249 251 256 260 266 270 268 266 264 263 263 263 262 262 265 268 268 265 260 260 263 264 261 255 252 252 254 256 258 258 259 262 263 264 269 271 281 294 300 309 311 311 313 313 313 313 314 317 317 317 316 313 313 314 316 316 317 319 321 323 324 325 324 324 325 327 327 326 326 326 325 324 323 321 321 321 323 325 325 324 322 321 319 316
255 252 256 260 262 267 271 271 269 266 265 267 264 263 264 267 271 273 270 265 262 261 261 255 251 252 254 256 254 251 248 250 256 262 271 280 283 286 296 304 311 313 312 313 312 311 312 313 314 313 312 312 311 311 312 312 312 313 314 315 316 317 317 317 318 319 320 321 322 323 324 324 323 322 321 321 321 322 323 324 323 323 323 322 322
255 255 258 262 266 271 273 274 274 272 268 267 265 265 267 269 271 273 275 273 265 260 257 252 247 246 246 250 250 247 245 248 256 270 281 284 281 284 303 313 315 316 313 312 313 313 315 315 314 313 311 311 312 312 312 311 312 312 312 311 312 312 312 312 313 313 314 316 317 318 319 320 320 319 319 319 318 318 319 321 321 322 323 324 325
256 255 257 264 272 275 275 273 274 273 269 269 269 268 268 269 271 272 274 273 263 255 254 251 244 235 231 240 246 246 250 264 281 286 279 280 292 305 316 318 316 314 312 312 314 316 317 316 315 314 313 313 314 314 313 313 312 311 310 310 310 310 310 310 310 310 311 312 312 312 313 314 314 314 314 314 313 313 314 315 317 319 321 323 325
257 256 261 270 276 277 276 274 271 269 268 270 272 272 270 269 269 270 272 269 259 253 251 248 246 241 236 236 241 256 277 287 284 279 282 295 310 314 314 314 313 312 312 314 316 317 317 316 315 314 314 314 315 314 314 314 312 310 310 310 310 310 309 308 308 308 308 308 307 307 307 307 308 308 308 308 309 310 310 311 312 314 317 318 318
259 260 266 273 276 279 282 276 266 262 266 271 274 274 272 267 264 265 267 263 255 252 249 246 243 234 224 229 254 276 275 260 266 283 300 309 312 310 310 311 310 311 313 315 316 316 316 315 315 314 314 314 314 313 313 313 311 309 309 308 307 308 308 307 306 307 306 305 304 304 303 303 303 303 304 304 305 306 306 307 307 308 309 310 311
259 262 266 269 272 280 285 276 259 255 263 272 274 274 270 263 258 256 258 257 253 252 246 236 223 206 197 242 261 252 251 261 283 301 307 309 308 307 308 309 309 311 313 314 315 315 314 314 314 314 313 313 312 311 311 310 308 307 306 305 305 305 305 305 305 305 304 303 303 302 302 302 300 300 300 300 300 300 301 302 302 303 303 304 305
258 262 266 268 270 276 280 270 254 252 261 269 272 271 267 259 253 252 253 250 248 243 230 219 214 218 247 253 241 242 267 289 301 306 305 305 305 305 307 309 310 312 313 313 313 313 313 313 313 313 312 311 310 309 308 307 305 305 304 303 303 303 302 303 303 304 304 302 302 301 300 299 298 298 297 297 296 296 296 297 298 299 299 299 298
257 261 266 269 270 271 272 266 257 255 259 264 265 264 260 253 248 246 241 235 230 221 216 222 239 266 264 251 255 270 287 298 301 302 302 302 303 305 308 310 311 311 311 311 311 311 311 311 312 311 311 310 309 308 307 306 305 304 304 302 302 302 301 302 302 304 306 305 303 301 300 298 297 296 296 295 294 293 293 293 293 293 294 295 295
254 259 267 276 277 272 267 263 260 257 255 256 255 250 242 236 233 229 222 218 213 211 232 263 281 277 273 276 283 288 291 296 299 300 301 302 305 307 309 310 309 309 309 309 309 309 309 310 310 309 309 308 308 308 307 306 306 305 305 305 304 304 304 304 303 303 304 306 305 304 302 300 299 297 295 293 293 292 291 290 289 289 290 291 292
251 259 270 283 285 274 260 256 259 256 250 248 244 236 227 217 208 211 214 213 219 239 265 285 294 288 290 295 289 288 291 297 300 300 301 303 305 306 308 307 307 307 307 307 307 307 307 307 307 307 307 306 306 306 306 306 306 307 307 307 307 307 307 307 306 304 303 303 304 304 304 303 301 298 295 293 292 290 289 289 287 287 287 288 288
252 256 267 280 284 276 261 253 253 248 241 238 230 221 215 209 203 216 229 235 248 266 282 291 291 288 291 291 286 289 296 301 300 299 300 301 301 302 303 303 303 305 305 306 306 306 306 306 305 305 305 305 305 305 305 306 306 307 307 308 308 309 310 310 309 308 306 304 302 302 302 302 301 300 297 295 293 290 288 286 285 284 284 284 285
255 255 262 271 275 276 263 248 242 234 226 217 209 207 216 224 233 248 253 254 260 272 283 282 278 280 284 283 284 292 298 297 295 295 295 295 296 298 299 300 301 303 304 305 306 306 306 306 306 306 306 306 306 306 306 306 307 307 308 308 308 309 310 310 309 309 308 307 305 303 301 300 299 298 297 296 294 292 290 287 285 283 282 281 280
261 259 261 264 260 257 244 230 229 224 216 212 218 237 251 248 248 255 258 259 260 262 263 265 269 275 281 284 290 294 293 290 289 290 293 296 298 300 301 303 304 305 306 307 307 307 307 307 307 307 307 306 306 306 306 307 307 307 307 307 308 308 308 308 308 308 307 307 306 305 303 300 298 296 295 295 294 292 290 288 286 283 282 280 278
Height
5900 5899 5898 5897 5896 5895 5894 5894 5893 5893 5892 5891 5890 5889 5888 5888 5887 5887 5886 5885 5885 5884 5883 5882 5881 5880 5879 5879 5877 5876 5875 5873 5872 5870 5869 5868 5867 5866 5866 5865 5864 5864 5863 5862 5861 5860 5860 5859 5859 5857 5857 5857 5857 5857 5857 5856 5856 5855 5855 5854 5853 5853 5853 5852 5852 5852 5852 5852 5852 5852 5852 5851 5851 5850 5850 5850 5850 5849 5849 5849 5849 5848 5848 5847 5847
5900 5899 5898 5897 5896 5895 5894 5893 5893 5892 5891 5891 5890 5889 5888 5887 5887 5887 5886 5885 5884 5884 5883 5882 5881 5880 5879 5879 5877 5876 5875 5874 5872 5871 5869 5868 5867 5867 5866 5866 5865 5864 5863 5862 5862 5861 5860 5859 5859 5858 5857 5857 5857 5857 5857 5857 5856 5855 5855 5854 5854 5853 5853 5852 5852 5852 5852 5852 5851 5851 5851 5851 5851 5850 5850 5850 5849 5849 5849 5849 5848 5848 5848 5847 5847
5899 5898 5897 5896 5895 5894 5893 5892 5892 5892 5891 5890 5890 5889 5888 5887 5887 5886 5885 5885 5884 5883 5883 5882 5881 5880 5879 5878 5877 5876 5875 5874 5872 5871 5870 5868 5868 5867 5866 5866 5865 5865 5864 5863 5862 5861 5860 5860 5859 5858 5857 5857 5857 5858 5858 5857 5857 5856 5855 5854 5853 5853 5853 5852 5852 5852 5852 5852 5851 5851 5851 5851 5851 5851 5850 5850 5850 5849 5849 5849 5848 5848 5847 5847 5847
5899 5898 5897 5896 5895 5893 5892 5892 5891 5891 5890 5890 5889 5888 5887 5887 5886 5886 5885 5884 5884 5883 5883 5882 5881 5880 5879 5878 5877 5876 5875 5874 5872 5871 5870 5869 5868 5867 5867 5866 5866 5865 5865 5864 5863 5862 5861 5860 5859 5858 5858 5858 5858 5858 5858 5857 5857 5856 5855 5854 5854 5853 5853 5852 5852 5852 5852 5852 5852 5852 5851 5851 5851 5851 5851 5850 5850 5850 5849 5849 5848 5848 5847 5847 5846
5899 5897 5896 5895 5894 5893 5892 5891 5891 5890 5890 5889 5888 5888 5887 5886 5886 5885 5885 5884 5884 5883 5882 5882 5881 5880 5879 5878 5877 5876 5875 5874 5872 5871 5870 5869 5868 5867 5867 5867 5866 5866 5865 5864 5863 5862 5861 5860 5859 5858 5858 5858 5858 5858 5858 5857 5857 5856 5855 5854 5854 5853 5853 5853 5852 5852 5852 5852 5852 5852 5852 5852 5851 5851 5851 5851 5851 5850 5850 5849 5849 5848 5847 5847 5846
5898 5896 5895 5894 5893 5892 5891 5890 5890 5889 5889 5888 5888 5887 5886 5886 5886 5885 5884 5884 5884 5883 5882 5882 5881 5880 5879 5878 5877 5876 5874 5873 5872 5871 5870 5869 5868 5867 5867 5867 5866 5866 5865 5864 5863 5862 5861 5861 5860 5859 5858 5858 5858 5858 5858 5857 5857 5856 5856 5855 5854 5854 5854 5853 5853 5853 5852 5852 5852 5852 5852 5852 5852 5852 5852 5851 5851 5850 5850 5849 5849 5848 5847 5847 5846
5897 5896 5894 5894 5893 5891 5890 5889 5889 5888 5888 5887 5887 5886 5886 5886 5885 5885 5884 5884 5883 5883 5882 5881 5880 5879 5878 5877 5876 5875 5874 5873 5872 5871 5870 5869 5868 5867 5867 5867 5866 5866 5865 5864 5864 5862 5862 5861 5860 5859 5858 5858 5858 5858 5857 5857 5857 5856 5856 5855 5855 5855 5854 5854 5854 5853 5853 5853 5853 5853 5853 5852 5852 5852 5852 5851 5851 5850 5850 5849 5848 5848 5847 5846 5846
5896 5894 5893 5893 5892 5890 5889 5889 5888 5888 5887 5887 5886 5886 5885 5885 5885 5884 5884 5884 5883 5883 5882 5881 5880 5879 5878 5877 5876 5875 5874 5872 5871 5871 5870 5869 5868 5867 5867 5866 5866 5865 5865 5864 5863 5862 5862 5861 5860 5859 5859 5858 5858 5858 5858 5857 5857 5857 5856 5856 5855 5855 5855 5855 5854 5854 5854 5853 5853 5853 5852 5852 5852 5852 5852 5851 5851 5850 5850 5849 5848 5847 5847 5846 5845
5894 5893 5892 5891 5890 5889 5888 5888 5887 5887 5886 5886 5885 5885 5885 5885 5884 5884 5884 5883 5883 5882 5881 5880 5880 5879 5878 5877 5876 5875 5873 5872 5871 5870 5869 5868 5868 5867 5866 5866 5866 5865 5865 5864 5863 5862 5862 5861 5860 5860 5859 5859 5858 5858 5858 5857 5857 5857 5856 5856 5856 5855 5855 5855 5854 5854 5854 5853 5853 5853 5852 5852 5852 5852 5851 5851 5851 5850 5849 5848 5848 5847 5846 5845 5844
5892 5891 5890 5890 5889 5888 5887 5887 5886 5886 5885 5885 5885 5884 5884 5884 5883 5883 5883 5883 5882 5882 5881 5880 5879 5878 5877 5876 5876 5874 5873 5872 5871 5870 5869 5868 5867 5867 5866 5866 5866 5865 5865 5864 5863 5862 5862 5861 5860 5860 5859 5859 5859 5858 5858 5858 5857 5857 5856 5856 5856 5855 5855 5855 5855 5854 5854 5853 5853 5853 5852 5852 5852 5851 5851 5850 5850 5849 5849 5848 5847 5846 5845 5844 5843
5889 5889 5888 5888 5887 5886 5886 5886 5885 5884 5884 5884 5884 5884 5883 5883 5883 5882 5882 5882 5881 5881 5880 5879 5879 5878 5877 5876 5875 5874 5873 5871 5870 5870 5869 5868 5867 5867 5866 5866 5866 5865 5865 5864 5863 5863 5862 5861 5860 5860 5859 5859 5859 5858 5858 5858 5857 5857 5856 5856 5856 5855 5855 5855 5855 5854 5854 5853 5853 5853 5852 5852 5851 5850 5850 5849 5849 5848 5847 5847 5846 5845 5844 5844 5843
5887 5887 5887 5887 5886 5885 5885 5884 5884 5883 5883 5882 5882 5882 5882 5882 5882 5881 5881 5881 5881 5880 5879 5879 5878 5877 5876 5875 5874 5873 5872 5871 5870 5869 5869 5868 5867 5867 5866 5866 5865 5865 5865 5864 5864 5863 5862 5861 5861 5860 5859 5859 5859 5858 5858 5857 5857 5857 5856 5856 5856 5855 5855 5854 5854 5854 5853 5853 5853 5852 5852 5851 5850 5849 5849 5848 5847 5847 5846 5845 5845 5844 5843 5843 5842
5885 5886 5886 5885 5885 5884 5884 5883 5882 5882 5881 5881 5881 5881 5881 5881 5880 5880 5880 5880 5880 5879 5879 5878 5877 5876 5875 5874 5873 5873 5872 5871 5870 5869 5869 5868 5867 5867 5866 5866 5865 5865 5865 5864 5864 5863 5862 5862 5861 5860 5859 5859 5858 5858 5858 5857 5857 5856 5856 5856 5855 5855 5854 5854 5853 5853 5853 5852 5852 5851 5851 5850 5849 5848 5848 5847 5846 5845 5845 5844 5844 5843 5842 5842 5841
5884 5884 5884 5883 5883 5883 5882 5882 5881 5880 5880 5880 5880 5880 5879 5879 5879 5879 5879 5879 5878 5878 5878 5877 5876 5875 5874 5873 5873 5872 5871 5870 5870 5869 5868 5868 5867 5867 5866 5866 5866 5865 5865 5864 5864 5863 5862 5862 5861 5860 5859 5859 5859 5858 5858 5857 5857 5856 5856 5855 5855 5854 5854 5853 5853 5852 5852 5851 5851 5850 5849 5849 5848 5847 5847 5846 5845 5844 5844 5843 5842 5842 5841 5841 5840
5882 5882 5882 5882 5881 5881 5881 5880 5880 5879 5879 5878 5878 5878 5878 5878 5877 5877 5877 5877 5877 5877 5877 5876 5875 5874 5874 5873 5872 5871 5870 5870 5869 5868 5868 5868 5867 5867 5866 5866 5866 5865 5865 5864 5864 5863 5862 5862 5861 5860 5860 5859 5859 5858 5858 5857 5856 5856 5855 5855 5854 5854 5853 5853 5852 5851 5851 5850 5849 5849 5848 5848 5847 5846 5845 5845 5844 5843 5842 5842 5841 5841 5840 5840 5839
5880 5880 5879 5880 5880 5879 5879 5878 5878 5878 5877 5877 5876 5876 5876 5876 5876 5876 5876 5876 5876 5876 5876 5875 5874 5874 5873 5872 5871 5870 5870 5869 5868 5868 5868 5867 5867 5866 5866 5866 5865 5865 5865 5864 5864 5863 5862 5861 5861 5860 5859 5859 5859 5858 5858 5857 5856 5856 5855 5855 5854 5853 5853 5852 5852 5850 5849 5849 5849 5848 5848 5847 5846 5845 5844 5844 5843 5842 5841 5841 5840 5840 5839 5839 5838
5878 5878 5877 5878 5878 5877 5877 5877 5876 5876 5875 5875 5875 5875 5875 5875 5874 5875 5875 5875 5875 5875 5875 5874 5874 5873 5872 5871 5870 5870 5869 5869 5868 5868 5867 5867 5867 5866 5866 5865 5865 5865 5865 5864 5864 5863 5862 5861 5861 5860 5859 5859 5858 5858 5857 5857 5856 5856 5855 5854 5853 5853 5852 5852 5851 5849 5848 5848 5848 5847 5846 5846 5845 5844 5843 5843 5842 5841 5841 5840 5839 5839 5838 5838 5837
5876 5876 5876 5875 5875 5875 5875 5875 5874 5874 5873 5873 5873 5873 5873 5873 5873 5873 5874 5874 5874 5874 5874 5873 5873 5872 5871 5871 5870 5869 5869 5869 5868 5867 5867 5866 5866 5866 5865 5865 5865 5865 5864 5864 5863 5863 5862 5861 5861 5860 5859 5858 5858 5857 5857 5856 5856 5855 5855 5854 5853 5852 5852 5851 5850 5849 5848 5847 5847 5846 5845 5845 5844 5843 5842 5842 5841 5840 5840 5839 5839 5838 5837 5837 5836
5873 5873 5873 5873 5873 5873 5873 5873 5872 5871 5871 5871 5871 5871 5871 5871 5872 5872 5872 5873 5873 5873 5873 5873 5872 5872 5871 5870 5869 5869 5869 5868 5868 5867 5866 5866 5865 5865 5865 5864 5864 5864 5864 5864 5863 5863 5862 5861 5860 5860 5859 5858 5857 5857 5856 5856 5855 5855 5854 5853 5853 5852 5851 5850 5849 5848 5847 5847 5846 5845 5844 5843 5843 5842 5841 5841 5840 5840 5839 5838 5838 5837 5836 5836 5835
5870 5870 5871 5871 5871 5871 5871 5870 5870 5869 5869 5869 5868 5869 5869 5870 5870 5870 5871 5871 5872 5872 5872 5872 5871 5871 5870 5870 5869 5869 5868 5868 5867 5866 5865 5865 5865 5865 5864 5864 5864 5863 5863 5863 5863 5862 5861 5860 5860 5859 5858 5858 5857 5856 5856 5855 5855 5854 5853 5853 5852 5851 5851 5850 5848 5847 5846 5846 5845 5844 5843 5842 5841 5841 5840 5839 5839 5838 5838 5837 5836 5836 5835 5834 5834
5867 5868 5868 5868 5868 5868 5868 5867 5867 5866 5866 5866 5866 5866 5867 5868 5868 5869 5869 5870 5871 5871 5871 5871 5870 5870 5870 5869 5869 5868 5868 5867 5866 5866 5865 5864 5864 5864 5864 5864 5863 5863 5862 5862 5862 5861 5861 5860 5859 5858 5858 5857 5856 5856 5855 5855 5854 5853 5853 5852 5851 5851 5850 5849 5848 5846 5845 5845 5845 5844 5842 5841 5840 5840 5839 5838 5837 5837 5836 5836 5835 5834 5834 5833 5832
5864 5864 5864 5864 5865 5865 5865 5865 5864 5864 5864 5864 5864 5864 5865 5866 5867 5867 5868 5869 5869 5869 5869 5870 5870 5870 5869 5869 5868 5868 5867 5867 5866 5865 5864 5864 5864 5864 5864 5864 5863 5862 5862 5861 5861 5861 5860 5859 5859 5858 5857 5856 5855 5855 5854 5854 5853 5853 5852 5851 5850 5850 5849 5848 5848 5847 5845 5844 5844 5843 5842 5840 5839 5838 5838 5837 5836 5836 5835 5834 5833 5833 5832 5831 5831
5861 5861 5861 5862 5862 5863 5863 5862 5862 5861 5861 5861 5862 5863 5864 5865 5866 5867 5867 5868 5868 5868 5868 5869 5869 5869 5869 5869 5868 5867 5867 5866 5865 5864 5864 5863 5863 5863 5863 5863 5863 5862 5861 5861 5860 5860 5860 5859 5858 5858 5857 5856 5855 5854 5854 5853 5852 5852 5851 5850 5849 5848 5848 5847 5847 5846 5844 5843 5843 5842 5840 5839 5838 5837 5837 5836 5835 5834 5833 5833 5832 5831 5830 5830 5829
5858 5858 5859 5860 5860 5860 5860 5860 5859 5859 5859 5859 5860 5861 5863 5864 5865 5866 5866 5867 5867 5867 5867 5868 5868 5869 5869 5869 5868 5867 5866 5866 5865 5864 5863 5863 5863 5862 5862 5862 5862 5862 5861 5861 5860 5859 5859 5858 5858 5857 5856 5855 5854 5853 5853 5852 5852 5851 5850 5849 5848 5847 5847 5846 5846 5845 5844 5843 5842 5841 5840 5839 5838 5837 5836 5835 5834 5833 5832 5831 5830 5829 5829 5828 5827
5856 5856 5857 5858 5858 5857 5857 5856 5856 5856 5857 5857 5859 5860 5862 5863 5864 5865 5865 5865 5865 5866 5867 5867 5868 5869 5869 5868 5867 5867 5866 5865 5865 5864 5863 5862 5862 5862 5862 5861 5861 5861 5861 5860 5860 5859 5858 5858 5857 5856 5856 5855 5854 5853 5852 5851 5851 5850 5849 5848 5847 5846 5845 5845 5845 5844 5843 5842 5841 5840 5839 5838 5837 5836 5835 5834 5833 5832 5830 5829 5828 5827 5827 5826 5825
5854 5854 5854 5854 5854 5853 5853 5853 5853 5854 5855 5856 5858 5860 5861 5863 5863 5863 5864 5864 5864 5865 5866 5867 5867 5868 5868 5867 5867 5867 5866 5865 5864 5863 5863 5862 5861 5861 5861 5860 5860 5860 5859 5859 5859 5859 5858 5857 5856 5856 5855 5854 5854 5853 5851 5850 5850 5849 5848 5848 5847 5846 5845 5844 5843 5843 5843 5841 5840 5839 5838 5837 5836 5835 5834 5833 5832 5831 5829 5828 5827 5826 5825 5824 5823
5849 5849 5850 5851 5850 5849 5849 5850 5851 5852 5853 5855 5858 5859 5861 5861 5861 5862 5862 5862 5863 5864 5865 5866 5866 5866 5867 5867 5867 5866 5866 5865 5864 5863 5862 5862 5861 5860 5860 5859 5859 5858 5858 5858 5858 5857 5857 5857 5856 5856 5855 5854 5854 5853 5852 5850 5849 5848 5847 5846 5846 5845 5843 5843 5842 5842 5842 5840 5839 5838 5837 5836 5835 5834 5833 5832 5831 5829 5828 5827 5826 5824 5823 5822 5821
5845 5845 5846 5846 5846 5847 5848 5849 5850 5851 5853 5855 5857 5859 5859 5860 5860 5860 5860 5861 5862 5863 5864 5864 5865 5865 5866 5866 5866 5866 5865 5865 5864 5863 5862 5861 5861 5860 5859 5858 5858 5858 5857 5857 5856 5856 5855 5855 5855 5854 5854 5854 5853 5852 5852 5850 5849 5848 5847 5846 5845 5843 5842 5842 5841 5841 5841 5839 5837 5836 5835 5834 5833 5832 5831 5830 5829 5828 5827 5826 5825 5824 5822 5821 5820
5847 5845 5845 5844 5844 5847 5850 5851 5851 5851 5853 5855 5857 5857 5858 5858 5858 5858 5859 5861 5862 5862 5863 5863 5863 5864 5865 5865 5865 5865 5865 5864 5864 5863 5862 5861 5860 5859 5858 5857 5857 5857 5856 5856 5855 5854 5854 5853 5853 5853 5853 5852 5852 5851 5850 5849 5848 5847 5847 5846 5845 5844 5842 5841 5840 5838 5838 5838 5837 5835 5834 5833 5832 5831 5830 5828 5827 5826 5825 5825 5824 5823 5821 5820 5819
5848 5847 5847 5846 5845 5846 5849 5851 5851 5851 5852 5854 5855 5856 5856 5856 5856 5857 5859 5860 5861 5861 5861 5861 5862 5862 5863 5864 5864 5864 5864 5864 5864 5863 5862 5861 5860 5859 5858 5857 5857 5856 5855 5855 5854 5853 5853 5853 5852 5852 5851 5851 5850 5849 5848 5848 5847 5846 5845 5844 5843 5843 5842 5841 5839 5836 5835 5835 5835 5833 5832 5831 5830 5829 5828 5827 5826 5825 5824 5823 5822 5821 5821 5819 5818
5849 5849 5847 5846 5846 5846 5848 5849 5849 5850 5850 5851 5852 5853 5853 5854 5856 5857 5858 5858 5858 5858 5859 5859 5860 5861 5862 5862 5862 5863 5863 5863 5863 5862 5861 5861 5860 5859 5858 5857 5856 5856 5855 5854 5854 5853 5852 5852 5851 5850 5850 5849 5848 5847 5846 5845 5845 5844 5844 5842 5841 5840 5840 5839 5837 5835 5833 5833 5832 5831 5830 5829 5828 5827 5826 5825 5825 5824 5823 5822 5820 5819 5819 5818 5817
5847 5847 5846 5847 5848 5846 5846 5847 5847 5847 5847 5848 5850 5851 5852 5854 5855 5855 5855 5855 5855 5856 5857 5857 5858 5859 5860 5861 5861 5861 5862 5862 5861 5861 5860 5860 5859 5859 5858 5857 5856 5855 5854 5854 5854 5853 5852 5851 5850 5849 5849 5848 5847 5846 5845 5844 5842 5842 5842 5841 5840 5838 5837 5836 5835 5833 5832 5831 5830 5830 5828 5827 5826 5825 5824 5824 5823 5823 5821 5820 5818 5817 5816 5816 5815
5842 5843 5844 5846 5847 5846 5844 5845 5845 5845 5846 5848 5850 5851 5852 5853 5853 5852 5852 5852 5853 5854 5854 5855 5856 5858 5858 5859 5860 5860 5860 5860 5860 5859 5859 5859 5858 5858 5858 5857 5856 5855 5854 5854 5853 5852 5851 5850 5849 5848 5848 5847 5846 5845 5844 5843 5841 5840 5840 5840 5839 5837 5836 5834 5833 5832 5831 5829 5828 5828 5827 5825 5824 5823 5822 5822 5821 5820 5819 5817 5816 5815 5814 5813 5813
5838 5839 5840 5842 5843 5843 5842 5842 5843 5844 5846 5848 5850 5850 5851 5851 5850 5850 5851 5852 5852 5852 5852 5853 5854 5855 5856 5857 5858 5858 5858 5858 5858 5857 5857 5857 5857 5857 5857 5857 5856 5855 5854 5853 5852 5851 5851 5850 5849 5848 5847 5846 5845 5844 5843 5842 5841 5840 5839 5838 5837 5836 5835 5833 5832 5831 5829 5828 5826 5826 5825 5824 5823 5821 5820 5820 5819 5817 5816 5815 5814 5813 5812 5811 5810
5836 5837 5838 5839 5838 5837 5838 5840 5843 5845 5846 5847 5848 5848 5848 5849 5848 5848 5850 5852 5852 5852 5852 5851 5852 5853 5854 5855 5855 5855 5855 5856 5856 5856 5856 5856 5856 5856 5856 5856 5856 5855 5853 5852 5851 5850 5850 5849 5848 5847 5846 5845 5844 5843 5842 5841 5840 5839 5838 5836 5835 5834 5833 5832 5831 5830 5828 5826 5825 5824 5823 5822 5821 5820 5819 5817 5816 5814 5814 5813 5812 5811 5810 5809 5808
5835 5836 5837 5838 5837 5836 5838 5841 5843 5844 5845 5846 5846 5846 5846 5846 5846 5846 5848 5849 5848 5849 5850 5850 5850 5851 5852 5853 5853 5853 5853 5853 5853 5854 5855 5855 5855 5855 5855 5855 5854 5853 5852 5851 5850 5850 5849 5849 5848 5847 5846 5845 5844 5843 5841 5840 5839 5838 5837 5835 5834 5832 5831 5830 5830 5828 5827 5825 5824 5822 5821 5820 5819 5818 5817 5815 5813 5812 5811 5811 5810 5809 5808 5808 5807
5834 5835 5836 5836 5837 5837 5839 5841 5842 5842 5843 5844 5843 5843 5843 5844 5844 5844 5845 5845 5845 5845 5847 5848 5849 5849 5850 5850 5850 5851 5851 5851 5852 5853 5854 5854 5854 5854 5854 5852 5851 5851 5851 5850 5850 5849 5848 5847 5846 5845 5844 5844 5843 5842 5840 5839 5838 5836 5835 5834 5833 5831 5830 5829 5827 5827 5825 5824 5822 5821 5820 5818 5817 5816 5815 5813 5812 5811 5809 5808 5808 5807 5806 5806 5805
5832 5833 5833 5834 5835 5836 5838 5839 5839 5839 5840 5842 5841 5840 5840 5841 5842 5843 5843 5843 5843 5844 5845 5846 5847 5847 5847 5848 5848 5849 5850 5851 5851 5852 5853 5853 5852 5852 5851 5850 5850 5850 5849 5849 5848 5848 5847 5846 5845 5844 5843 5842 5841 5840 5839 5838 5837 5835 5834 5832 5831 5830 5828 5826 5825 5824 5823 5822 5821 5819 5818 5817 5815 5814 5813 5812 5810 5809 5808 5807 5806 5805 5805 5804 5802
5830 5830 5831 5832 5833 5834 5836 5837 5837 5838 5839 5840 5838 5837 5838 5839 5841 5841 5842 5842 5843 5843 5843 5844 5844 5844 5845 5846 5847 5848 5849 5849 5850 5851 5851 5850 5849 5849 5849 5849 5848 5848 5847 5847 5846 5846 5845 5843 5842 5841 5840 5840 5839 5838 5837 5836 5835 5834 5832 5831 5829 5828 5827 5825 5823 5822 5821 5820 5818 5817 5815 5814 5812 5811 5810 5809 5807 5806 5805 5804 5804 5803 5802 5801 5800
5827 5828 5829 5829 5831 5833 5834 5835 5836 5836 5837 5837 5836 5836 5836 5837 5838 5840 5840 5840 5841 5841 5841 5841 5842 5842 5843 5844 5845 5846 5847 5847 5847 5848 5848 5848 5847 5847 5847 5847 5846 5845 5845 5844 5844 5843 5842 5841 5840 5839 5838 5837 5836 5836 5835 5834 5833 5831 5830 5829 5827 5826 5825 5823 5822 5820 5819 5818 5816 5815 5813 5812 5810 5808 5807 5806 5805 5804 5803 5802 5801 5800 5799 5798 5797
5824 5825 5826 5827 5828 5830 5832 5833 5834 5833 5834 5835 5835 5834 5835 5835 5836 5837 5838 5838 5838 5838 5839 5839 5840 5841 5842 5844 5845 5846 5846 5845 5844 5844 5845 5846 5846 5845 5844 5843 5843 5843 5843 5842 5841 5840 5839 5838 5837 5836 5836 5835 5834 5833 5833 5832 5830 5829 5828 5826 5825 5824 5822 5821 5819 5818 5816 5815 5814 5812 5811 5809 5808 5807 5805 5804 5803 5802 5801 5800 5799 5798 5796 5795 5795
5822 5823 5824 5825 5826 5827 5829 5830 5831 5831 5831 5832 5832 5832 5833 5833 5834 5835 5836 5836 5835 5836 5836 5837 5839 5840 5841 5842 5843 5843 5843 5842 5843 5844 5844 5844 5843 5842 5841 5841 5841 5841 5840 5839 5839 5838 5837 5836 5835 5834 5833 5832 5832 5831 5830 5829 5828 5827 5825 5823 5822 5821 5820 5818 5817 5816 5814 5813 5811 5810 5809 5807 5806 5804 5803 5802 5800 5799 5798 5797 5796 5795 5794 5793 5792
5820 5821 5822 5823 5824 5825 5826 5826 5828 5829 5829 5829 5829 5830 5831 5831 5832 5833 5834 5834 5834 5834 5835 5837 5838 5838 5839 5839 5840 5840 5841 5841 5842 5842 5841 5840 5840 5840 5840 5840 5839 5839 5838 5837 5836 5836 5835 5834 5833 5832 5831 5830 5829 5828 5827 5827 5825 5824 5823 5822 5820 5818 5817 5815 5814 5813 5812 5810 5809 5807 5806 5804 5803 5801 5800 5799 5798 5797 5795 5794 5793 5793 5792 5791 5790
5818 5819 5820 5821 5823 5823 5823 5823 5824 5826 5827 5827 5827 5828 5829 5829 5829 5831 5832 5832 5833 5834 5835 5836 5837 5836 5836 5837 5838 5839 5839 5840 5840 5839 5838 5838 5839 5839 5839 5838 5837 5836 5835 5835 5834 5833 5833 5832 5830 5829 5828 5827 5826 5825 5825 5824 5823 5821 5820 5819 5818 5816 5815 5813 5810 5809 5809 5807 5805 5804 5802 5801 5799 5798 5797 5795 5795 5794 5793 5792 5790 5790 5789 5788 5787
5816 5817 5817 5819 5820 5821 5821 5821 5822 5824 5825 5825 5825 5825 5826 5826 5827 5829 5830 5831 5832 5833 5834 5835 5835 5834 5834 5836 5838 5838 5837 5837 5837 5837 5837 5837 5837 5837 5836 5836 5835 5834 5833 5832 5832 5831 5830 5829 5828 5827 5825 5824 5823 5822 5821 5821 5819 5818 5817 5816 5815 5814 5812 5811 5808 5806 5805 5803 5802 5801 5799 5797 5796 5795 5793 5792 5791 5790 5790 5789 5788 5787 5786 5785 5784
5813 5814 5815 5816 5817 5818 5819 5819 5820 5822 5823 5824 5824 5824 5823 5824 5826 5827 5828 5829 5830 5831 5833 5833 5833 5833 5834 5835 5835 5835 5834 5834 5835 5835 5835 5835 5835 5835 5834 5833 5832 5832 5831 5830 5829 5829 5827 5826 5825 5824 5823 5821 5820 5819 5818 5817 5816 5814 5814 5812 5811 5810 5809 5808 5807 5804 5801 5799 5798 5797 5796 5794 5792 5791 5790 5788 5787 5786 5786 5785 5784 5783 5782 5782 5781
5811 5812 5813 5813 5814 5815 5817 5817 5818 5820 5821 5822 5823 5823 5823 5824 5824 5825 5826 5827 5828 5830 5831 5832 5832 5832 5833 5833 5832 5832 5832 5833 5833 5833 5833 5833 5833 5832 5832 5831 5831 5830 5829 5828 5827 5826 5825 5824 5822 5821 5820 5819 5817 5816 5814 5813 5812 5810 5809 5808 5806 5805 5804 5804 5803 5802 5800 5798 5795 5792 5791 5790 5788 5787 5786 5784 5784 5782 5781 5780 5780 5779 5778 5778 5777
5810 5810 5811 5811 5812 5813 5815 5816 5816 5817 5818 5820 5821 5822 5823 5823 5824 5825 5826 5828 5828 5830 5830 5829 5829 5830 5830 5830 5830 5830 5830 5831 5831 5831 5831 5831 5831 5830 5830 5829 5829 5828 5827 5826 5825 5824 5823 5821 5820 5819 5817 5816 5814 5813 5811 5810 5808 5806 5805 5804 5802 5801 5800 5798 5798 5797 5797 5796 5794 5790 5787 5785 5784 5783 5782 5780 5779 5778 5777 5776 5774 5774 5774 5773 5773
5808 5809 5809 5810 5811 5811 5812 5813 5815 5815 5817 5818 5819 5821 5822 5823 5824 5825 5827 5828 5828 5828 5827 5826 5827 5828 5828 5828 5828 5828 5828 5828 5828 5829 5829 5829 5829 5828 5828 5827 5827 5826 5825 5824 5823 5821 5820 5818 5817 5816 5814 5813 5811 5810 5808 5807 5805 5804 5802 5800 5798 5797 5795 5794 5792 5791 5791 5791 5791 5789 5786 5783 5780 5777 5776 5776 5775 5773 5772 5771 5769 5769 5770 5769 5768
5806 5807 5808 5808 5809 5809 5810 5811 5813 5814 5815 5816 5818 5819 5820 5821 5823 5824 5825 5826 5826 5825 5824 5825 5826 5827 5827 5827 5826 5826 5826 5826 5826 5826 5827 5827 5827 5826 5826 5825 5825 5824 5822 5821 5820 5818 5817 5815 5814 5812 5811 5809 5808 5806 5805 5803 5802 5800 5799 5797 5795 5794 5792 5790 5788 5787 5785 5784 5784 5784 5783 5782 5779 5775 5772 5770 5769 5768 5767 5765 5764 5764 5764 5764 5763
5803 5804 5805 5806 5807 5808 5809 5811 5812 5813 5814 5816 5816 5817 5818 5820 5821 5822 5823 5823 5823 5823 5823 5824 5825 5825 5825 5824 5824 5824 5824 5825 5825 5825 5824 5824 5824 5823 5823 5822 5821 5820 5819 5818 5817 5815 5814 5812 5810 5809 5807 5806 5804 5803 5801 5799 5798 5796 5795 5793 5792 5790 5788 5786 5785 5783 5781 5780 5778 5778 5777 5776 5775 5772 5769 5767 5765 5763 5761 5759 5759 5758 5758 5758 5758